GW5948 Weather Reports


time (UTC)temp
F
wind
direction
speed
knots
gust
knots
rain 1hr
in
rain 24hr
in
rain mn
in
humidity
%
barometer
mb
20260508053017 52 104 7.0 11.3 0.00 0.00 0.00 88 1013.2
20260508052018 52 109 5.2 11.3 0.00 0.00 0.00 89 1013.2
20260508051018 52 104 7.8 13.0 0.00 0.00 0.00 88 1013.2
20260508050020 52 96 4.3 7.8 0.00 0.00 0.00 87 1013.2
20260508045017 52 117 5.2 8.7 0.00 0.00 0.00 87 1013.4
20260508044018 51 101 4.3 9.6 0.00 0.00 0.00 88 1013.4
20260508043016 51 112 6.1 9.6 0.00 0.00 0.00 89 1013.4
20260508042016 51 105 5.2 9.6 0.00 0.00 0.00 89 1013.3
20260508041017 51 105 5.2 9.6 0.00 0.00 0.00 89 1013.3
20260508040017 50 104 7.0 12.2 0.00 0.00 0.00 90 1013.1
20260508035017 50 119 7.0 10.4 0.00 0.00 0.00 90 1013.1
20260508034018 50 123 4.3 8.7 0.00 0.00 0.00 90 1013.0
20260508033017 50 106 5.2 8.7 0.00 0.00 0.00 90 1013.0
20260508032018 50 102 4.3 8.7 0.00 0.00 0.00 90 1013.1
20260508031037 50 111 4.3 7.8 0.00 0.00 0.00 90 1013.0
20260508030039 50 86 4.3 7.8 0.00 0.00 0.00 90 1012.8
20260508025020 50 97 3.5 7.0 0.00 0.00 0.00 89 1012.7
20260508024019 50 105 4.3 9.6 0.00 0.00 0.00 89 1012.5
20260508023020 50 102 4.3 8.7 0.00 0.00 0.00 88 1012.6
20260508022018 50 124 4.3 10.4 0.00 0.00 0.00 88 1012.7
20260508021019 51 102 6.1 9.6 0.00 0.00 0.00 87 1012.5
20260508020040 51 100 5.2 9.6 0.00 0.00 0.00 87 1012.5
20260508015019 51 96 4.3 8.7 0.00 0.00 0.00 86 1012.5
20260508014020 51 97 5.2 8.7 0.00 0.00 0.00 86 1012.5
20260508013019 51 100 5.2 7.8 0.00 0.00 0.00 85 1012.5
20260508012020 52 104 6.1 9.6 0.00 0.00 0.00 85 1012.4
20260508011019 52 112 6.1 10.4 0.00 0.00 0.00 85 1012.5
20260508010020 52 118 6.1 9.6 0.00 0.00 0.00 84 1012.4
20260508005040 52 104 6.1 8.7 0.00 0.00 0.00 84 1012.4
20260508004019 52 115 5.2 8.7 0.00 0.00 0.00 84 1012.4
20260508003020 52 105 6.1 9.6 0.00 0.00 0.00 83 1012.3
20260508002019 53 102 7.0 11.3 0.00 0.00 0.00 83 1012.3
20260508001020 53 103 6.1 12.2 0.00 0.00 0.00 82 1012.3
20260508000038 53 97 6.1 10.4 0.00 0.00 0.00 82 1012.3
20260507235019 53 104 6.1 8.7 0.00 0.00 0.00 82 1012.4
20260507234020 53 109 7.0 11.3 0.00 0.00 0.00 81 1012.4
20260507233020 54 114 7.0 10.4 0.00 0.00 0.00 81 1012.4
20260507232020 54 101 7.0 10.4 0.00 0.00 0.00 81 1012.4
20260507231019 54 112 6.1 8.7 0.00 0.00 0.00 80 1012.6
20260507230020 54 117 6.1 12.2 0.00 0.00 0.00 80 1012.4
20260507225021 54 116 5.2 11.3 0.00 0.00 0.00 79 1012.5
20260507224020 55 112 7.0 11.3 0.00 0.00 0.00 79 1012.5
20260507223040 55 109 6.1 10.4 0.00 0.00 0.00 78 1012.7
20260507222020 55 115 7.8 12.2 0.00 0.00 0.00 77 1012.6
20260507221020 55 103 7.0 10.4 0.00 0.00 0.00 77 1012.7
20260507220021 55 99 6.1 9.6 0.00 0.00 0.00 77 1012.7
20260507215019 56 113 7.8 13.0 0.00 0.00 0.00 76 1012.6
20260507214020 56 94 7.0 10.4 0.00 0.00 0.00 76 1012.6
20260507213019 57 99 7.0 10.4 0.00 0.00 0.00 74 1012.5
20260507212020 57 118 7.0 13.0 0.00 0.00 0.00 73 1012.5
20260507211020 57 113 7.8 13.0 0.00 0.00 0.00 73 1012.4
20260507210019 57 109 7.8 11.3 0.00 0.00 0.00 72 1012.6
20260507205021 58 111 5.2 8.7 0.00 0.00 0.00 71 1012.5
20260507204021 58 111 8.7 13.0 0.00 0.00 0.00 70 1012.3
20260507203019 59 111 7.8 13.0 0.00 0.00 0.00 70 1012.4
20260507202021 59 118 7.0 13.0 0.00 0.00 0.00 69 1012.3
20260507201019 60 108 7.8 12.2 0.00 0.00 0.00 68 1012.4
20260507200018 60 108 7.8 13.0 0.00 0.00 0.00 68 1012.4
20260507195018 60 106 6.1 13.9 0.00 0.00 0.00 67 1012.5
20260507194019 61 100 6.1 10.4 0.00 0.00 0.00 67 1012.4
20260507193019 61 102 4.3 7.8 0.00 0.00 0.00 67 1012.5
20260507192059 61 106 5.2 8.7 0.00 0.00 0.00 66 1012.4
20260507191020 61 107 6.1 11.3 0.00 0.00 0.00 66 1012.4
20260507190021 62 99 6.1 13.0 0.00 0.00 0.00 65 1012.3
20260507185018 63 103 5.2 8.7 0.00 0.00 0.00 64 1012.3
20260507184039 63 110 6.1 11.3 0.00 0.00 0.00 62 1012.3
20260507183101 64 107 7.0 10.4 0.00 0.00 0.00 61 1012.2
20260507182019 65 105 5.2 10.4 0.00 0.00 0.00 61 1012.2
20260507181020 66 115 5.2 10.4 0.00 0.00 0.00 58 1012.1
20260507180019 67 112 6.1 10.4 0.00 0.00 0.00 57 1012.0
20260507175019 67 116 5.2 12.2 0.00 0.00 0.00 56 1011.9
20260507174018 68 117 7.8 14.8 0.00 0.00 0.00 55 1011.9
20260507173021 68 120 7.0 11.3 0.00 0.00 0.00 54 1011.9
20260507172059 69 114 6.1 11.3 0.00 0.00 0.00 53 1011.8
20260507171020 70 115 5.2 9.6 0.00 0.00 0.00 50 1011.7
20260507170019 71 121 5.2 12.2 0.00 0.00 0.00 48 1011.6
20260507165019 71 138 7.0 16.5 0.00 0.00 0.00 46 1011.6
20260507164019 71 133 4.3 7.8 0.00 0.00 0.00 48 1011.6
20260507163020 72 129 6.1 13.0 0.00 0.00 0.00 46 1011.5
20260507162019 73 134 7.8 16.5 0.00 0.00 0.00 46 1011.4
20260507161019 73 123 6.1 14.8 0.00 0.00 0.00 45 1011.4
20260507160019 73 121 7.0 15.6 0.00 0.00 0.00 45 1011.5
20260507155019 74 132 7.0 12.2 0.00 0.00 0.00 44 1011.5
20260507154019 74 139 7.0 13.9 0.00 0.00 0.00 43 1011.5
20260507153020 74 130 7.8 16.5 0.00 0.00 0.00 42 1011.5
20260507152019 75 126 9.6 18.2 0.00 0.00 0.00 41 1011.4
20260507151040 75 139 7.0 13.9 0.00 0.00 0.00 41 1011.6
20260507150020 75 128 7.8 18.2 0.00 0.00 0.00 41 1011.8
20260507145020 75 126 8.7 15.6 0.00 0.00 0.00 40 1011.6
20260507144021 75 125 8.7 16.5 0.00 0.00 0.00 41 1011.7
20260507143019 75 127 7.8 15.6 0.00 0.00 0.00 40 1011.8
20260507142100 75 130 7.8 14.8 0.00 0.00 0.00 39 1011.9
20260507141021 76 125 7.8 14.8 0.00 0.00 0.00 38 1012.0
20260507140019 76 133 7.8 17.4 0.00 0.00 0.00 38 1012.1
20260507135019 76 125 9.6 16.5 0.00 0.00 0.00 37 1012.0
20260507134019 76 126 7.8 14.8 0.00 0.00 0.00 36 1012.0
20260507133019 76 150 9.6 18.2 0.00 0.00 0.00 36 1012.1
20260507132019 77 143 7.0 14.8 0.00 0.00 0.00 37 1012.1
20260507131019 77 124 7.8 15.6 0.00 0.00 0.00 36 1012.1
20260507130020 76 129 7.0 12.2 0.00 0.00 0.00 36 1012.1
20260507125020 76 141 7.0 16.5 0.00 0.00 0.00 37 1012.2
20260507124019 76 129 7.8 13.9 0.00 0.00 0.00 37 1012.5
20260507123019 76 140 7.0 14.8 0.00 0.00 0.00 37 1012.6
20260507122019 76 121 7.8 15.6 0.00 0.00 0.00 36 1012.6
20260507121018 76 140 7.0 13.0 0.00 0.00 0.00 36 1012.7
20260507120040 76 137 6.1 16.5 0.00 0.00 0.00 36 1012.9
20260507115020 76 133 7.8 13.9 0.00 0.00 0.00 36 1012.9
20260507114020 76 106 7.0 13.9 0.00 0.00 0.00 36 1012.9
20260507113023 75 143 7.0 13.9 0.00 0.00 0.00 36 1013.0
20260507112021 75 164 8.7 17.4 0.00 0.00 0.00 35 1013.1
20260507111020 75 135 7.8 13.9 0.00 0.00 0.00 35 1013.2
20260507110022 75 123 9.6 15.6 0.00 0.00 0.00 35 1013.2
20260507105020 75 138 7.8 13.9 0.00 0.00 0.00 35 1013.2
20260507104022 75 146 7.8 13.9 0.00 0.00 0.00 34 1013.2
20260507103019 75 121 8.7 16.5 0.00 0.00 0.00 34 1013.3
20260507102019 75 135 7.0 13.9 0.00 0.00 0.00 35 1013.4
20260507101020 74 123 7.8 13.0 0.00 0.00 0.00 36 1013.4
20260507100019 74 126 8.7 16.5 0.00 0.00 0.00 36 1013.5
20260507095020 74 114 7.8 13.0 0.00 0.00 0.00 36 1013.4
20260507094020 74 145 8.7 13.0 0.00 0.00 0.00 35 1013.5
20260507093019 73 127 7.8 14.8 0.00 0.00 0.00 36 1013.6
20260507092021 73 124 7.0 14.8 0.00 0.00 0.00 36 1013.7
20260507091020 73 123 8.7 15.6 0.00 0.00 0.00 35 1013.6
20260507090019 72 125 9.6 15.6 0.00 0.00 0.00 36 1013.6
20260507085019 72 124 8.7 15.6 0.00 0.00 0.00 36 1013.6
20260507084018 72 133 7.8 16.5 0.00 0.00 0.00 36 1013.6
20260507083018 72 131 8.7 17.4 0.00 0.00 0.00 36 1013.6
20260507082019 72 126 7.8 13.9 0.00 0.00 0.00 37 1013.6
20260507081019 71 120 7.0 14.8 0.00 0.00 0.00 38 1013.6
20260507080020 70 126 7.8 15.6 0.00 0.00 0.00 38 1013.6
20260507075020 70 126 7.8 14.8 0.00 0.00 0.00 39 1013.8
20260507074019 70 126 7.0 14.8 0.00 0.00 0.00 39 1013.8
20260507073020 69 121 7.8 13.9 0.00 0.00 0.00 41 1013.8
20260507072020 68 119 7.0 13.9 0.00 0.00 0.00 45 1013.8
20260507071019 67 115 6.1 13.9 0.00 0.00 0.00 47 1013.7
20260507070019 67 118 7.0 12.2 0.00 0.00 0.00 49 1013.7
20260507065019 66 115 5.2 13.0 0.00 0.00 0.00 49 1013.8
20260507064020 65 109 7.0 12.2 0.00 0.00 0.00 50 1013.8
20260507063019 64 118 7.8 13.0 0.00 0.00 0.00 49 1013.8
20260507062021 64 118 5.2 11.3 0.00 0.00 0.00 50 1013.8
20260507061020 63 120 6.1 14.8 0.00 0.00 0.00 51 1013.9
20260507060059 62 117 7.8 15.6 0.00 0.00 0.00 52 1013.9
20260507055019 62 114 6.1 12.2 0.00 0.00 0.00 54 1013.8
20260507054019 61 118 5.2 11.3 0.00 0.00 0.00 56 1013.8